Weather History for Gioia del Colle, Italy

Change the Weather History Date:

Wednesday, July 3, 2013

  Actual Average Record
Temperature  
Mean Temperature 72 °F -  
Max Temperature 84 °F 85 °F 102 °F (1998)
Min Temperature 59 °F 61 °F 59 °F (1997)
Cooling Degree Days 6    
Growing Degree Days 22 (Base 50)    
Moisture  
Dew Point 51 °F    
Average Humidity 49    
Maximum Humidity 72    
Minimum Humidity 30    
Precipitation  
Precipitation 0.00 in 0.04 in - ()
Sea Level Pressure  
Sea Level Pressure 29.96 in    
Wind  
Wind Speed 3 mph ()    
Max Wind Speed 12 mph    
Max Gust Speed -    
Visibility 6.2 miles    
Events      
Averages and records for this station are not official NWS values.
T = Trace of Precipitation, MM = Missing Value Source: Averaged Metar Reports

Daily Weather History Graph

Daily Weather History Graph

Search for Another Location

Airport:

Trip Planner

Search our weather history database for the weather conditions in past years. The results will help you decide how hot, cold, wet, or windy it might be!

Date:

Astronomy

Jul. 03, 2013 Rise Set
Actual Time 5:25 AM CEST 8:27 PM CEST
Civil Twilight 4:52 AM CEST 9:00 PM CEST
Nautical Twilight 4:10 AM CEST 9:42 PM CEST
Astronomical Twilight 3:20 AM CEST 10:31 PM CEST
Moon 1:53 AM CEST (7/3) 4:20 PM CEST (7/3)
Length of Visible Light 16h 07m
Length of Day
15h 01m
Waning Crescent, 20% of the Moon is Illuminated
Jul 3
Waning Crescent
Jul 8
New
Jul 16
First Quarter
Jul 22
Full
Jul 29
Last Quarter

Hourly Weather History & Observations

Time (CEST) Temp. Dew Point Humidity Pressure Visibility Wind Dir Wind Speed Gust Speed Precip Events Conditions
12:55 AM 62.6 °F 50.0 °F 63% 30.01 in - Calm Calm - N/A   Clear
1:55 AM 62.6 °F 50.0 °F 63% 30.01 in - Calm Calm - N/A   Clear
2:55 AM 60.8 °F 50.0 °F 68% 30.01 in - Calm Calm - N/A   Clear
3:55 AM 59.0 °F 50.0 °F 72% 29.98 in - NNW 2.3 mph - N/A   Clear
4:55 AM 59.0 °F 50.0 °F 72% 29.98 in - Calm Calm - N/A   Clear
5:55 AM 59.0 °F 50.0 °F 72% 30.01 in - Calm Calm - N/A   Clear
6:55 AM 62.6 °F 51.8 °F 68% 29.98 in - Calm Calm - N/A   Clear
7:55 AM 71.6 °F 53.6 °F 53% 29.98 in - Variable 2.3 mph - N/A   Clear
8:55 AM 75.2 °F 50.0 °F 41% 29.98 in - NNE 5.8 mph - N/A   Clear
9:55 AM 77.0 °F 48.2 °F 36% 29.98 in - NNW 5.8 mph - N/A   Clear
10:55 AM 78.8 °F 48.2 °F 34% 29.98 in 6.2 mi North 6.9 mph - N/A   Partly Cloudy
11:55 AM 80.6 °F 46.4 °F 30% 29.98 in - North 6.9 mph - N/A   Clear
12:55 PM 82.4 °F 50.0 °F 32% 29.98 in 6.2 mi North 8.1 mph - N/A   Partly Cloudy
1:55 PM 84.2 °F 50.0 °F 30% 29.95 in 6.2 mi Calm Calm - N/A   Partly Cloudy
2:55 PM 84.2 °F 50.0 °F 30% 29.95 in 6.2 mi Calm Calm - N/A   Partly Cloudy
3:55 PM 82.4 °F 50.0 °F 32% 29.92 in 6.2 mi North 10.4 mph - N/A   Partly Cloudy
4:55 PM 82.4 °F 50.0 °F 32% 29.92 in 6.2 mi North 11.5 mph - N/A   Partly Cloudy
5:55 PM 80.6 °F 46.4 °F 30% 29.92 in 6.2 mi North 9.2 mph - N/A   Partly Cloudy
6:55 PM 80.6 °F 48.2 °F 32% 29.92 in - NNE 6.9 mph - N/A   Clear
7:55 PM 78.8 °F 51.8 °F 39% 29.92 in - South 5.8 mph - N/A   Clear
8:55 PM 73.4 °F 53.6 °F 50% 29.92 in - South 5.8 mph - N/A   Clear
9:55 PM 69.8 °F 55.4 °F 60% 29.92 in - South 4.6 mph - N/A   Clear
10:55 PM 68.0 °F 57.2 °F 68% 29.92 in - SW 2.3 mph - N/A   Clear
11:55 PM 68.0 °F 55.4 °F 64% 29.92 in - SW 4.6 mph - N/A   Clear